AX426 Weather Reports


time (UTC)temp
C
wind
direction
speed
KPH
gust
KPH
rain 1hr
cm
rain 24hr
cm
rain mn
cm
humidity
%
barometer
mb
20260507092350 3 312 1.6 1.6 0.00 0.00 0.00 96 1015.0
20260507091851 3 0 0.0 0.0 0.00 0.00 0.00 96 1014.9
20260507091350 3 0 0.0 0.0 0.00 0.00 0.00 96 1014.9
20260507090851 3 0 0.0 0.0 0.00 0.00 0.00 96 1014.9
20260507090350 3 0 0.0 0.0 0.00 0.00 0.00 96 1014.9
20260507085852 3 0 0.0 0.0 0.00 0.00 0.00 96 1014.9
20260507085353 3 0 0.0 0.0 0.00 0.00 0.00 96 1014.8
20260507084851 4 0 0.0 0.0 0.00 0.00 0.00 96 1014.8
20260507084350 4 0 0.0 0.0 0.00 0.00 0.00 96 1014.8
20260507083849 4 0 0.0 0.0 0.00 0.00 0.00 96 1014.8
20260507083352 4 0 0.0 0.0 0.00 0.00 0.00 96 1014.8
20260507082850 4 0 0.0 0.0 0.00 0.00 0.00 96 1014.8
20260507082351 4 237 1.6 1.6 0.00 0.00 0.00 96 1014.8
20260507081852 4 0 0.0 0.0 0.00 0.00 0.00 96 1014.8
20260507081352 4 265 1.6 1.6 0.00 0.00 0.00 96 1014.8
20260507080851 4 0 0.0 0.0 0.00 0.00 0.00 96 1014.8
20260507080353 4 0 0.0 0.0 0.00 0.00 0.00 96 1014.8
20260507075852 4 0 0.0 0.0 0.00 0.00 0.00 96 1014.8
20260507075351 4 239 0.0 1.6 0.00 0.00 0.00 96 1014.8
20260507074852 4 0 0.0 0.0 0.00 0.00 0.00 96 1014.8
20260507074350 5 0 0.0 0.0 0.00 0.00 0.00 96 1014.9
20260507073854 5 0 0.0 0.0 0.00 0.00 0.00 95 1014.8
20260507073401 5 0 0.0 0.0 0.00 0.00 0.00 96 1014.8
20260507072851 5 261 1.6 1.6 0.00 0.00 0.00 96 1014.9
20260507072350 4 267 1.6 1.6 0.00 0.00 0.00 95 1014.8
20260507071852 4 281 0.0 1.6 0.00 0.00 0.00 95 1014.8
20260507071349 4 0 0.0 0.0 0.00 0.00 0.00 95 1014.8
20260507070851 5 0 0.0 0.0 0.00 0.00 0.00 95 1014.7
20260507070352 5 0 0.0 0.0 0.00 0.00 0.00 95 1014.8
20260507065851 5 0 0.0 0.0 0.00 0.00 0.00 95 1014.8
20260507065354 5 0 0.0 0.0 0.00 0.00 0.00 95 1014.8
20260507064851 5 0 0.0 0.0 0.00 0.00 0.00 95 1014.9
20260507064351 5 242 1.6 1.6 0.00 0.00 0.00 95 1015.0
20260507063853 5 232 1.6 1.6 0.00 0.00 0.00 95 1015.0
20260507063353 5 247 1.6 1.6 0.00 0.00 0.00 95 1014.9
20260507062853 5 251 0.0 1.6 0.00 0.00 0.00 95 1014.9
20260507062352 5 0 0.0 0.0 0.00 0.00 0.00 94 1014.9
20260507061853 5 0 0.0 0.0 0.00 0.00 0.00 94 1014.9
20260507061351 5 0 0.0 0.0 0.00 0.00 0.00 94 1014.9
20260507060850 5 235 1.6 1.6 0.00 0.00 0.00 94 1014.9
20260507060351 5 0 0.0 0.0 0.00 0.00 0.00 94 1014.9
20260507055849 6 0 0.0 0.0 0.00 0.00 0.00 94 1014.9
20260507055352 6 237 1.6 1.6 0.00 0.00 0.00 94 1014.9
20260507054850 6 232 1.6 1.6 0.00 0.00 0.00 93 1015.0
20260507054350 6 237 1.6 1.6 0.00 0.00 0.00 93 1015.0
20260507053851 6 234 1.6 1.6 0.00 0.00 0.00 93 1015.1
20260507053353 6 236 1.6 1.6 0.00 0.00 0.00 93 1015.0
20260507052849 5 257 1.6 1.6 0.00 0.00 0.00 93 1015.1
20260507052357 5 240 1.6 1.6 0.00 0.00 0.00 93 1015.1
20260507051849 5 0 0.0 0.0 0.00 0.00 0.00 93 1015.0
20260507051350 6 0 0.0 0.0 0.00 0.00 0.00 93 1015.0
20260507050850 6 0 0.0 0.0 0.00 0.00 0.00 93 1015.1
20260507050351 6 0 0.0 0.0 0.00 0.00 0.00 92 1015.2
20260507045850 6 0 0.0 0.0 0.00 0.00 0.00 92 1015.3
20260507045350 6 0 0.0 0.0 0.00 0.00 0.00 91 1015.3
20260507044849 6 0 0.0 0.0 0.00 0.00 0.00 91 1015.3
20260507044349 6 234 1.6 1.6 0.00 0.00 0.00 91 1015.5
20260507043849 6 232 1.6 3.2 0.00 0.00 0.00 91 1015.4
20260507043350 6 216 3.2 3.2 0.00 0.00 0.00 91 1015.5
20260507042849 6 237 1.6 3.2 0.00 0.00 0.00 90 1015.4
20260507042349 7 241 1.6 1.6 0.00 0.00 0.00 90 1015.4
20260507041851 7 231 1.6 3.2 0.00 0.00 0.00 90 1015.3
20260507041351 7 224 3.2 3.2 0.00 0.00 0.00 90 1015.4
20260507040850 7 234 3.2 3.2 0.00 0.00 0.00 89 1015.3
20260507040349 7 226 1.6 1.6 0.00 0.00 0.00 89 1015.2
20260507035852 7 0 0.0 0.0 0.00 0.00 0.99 89 1015.2
20260507035352 7 217 1.6 1.6 0.00 0.00 0.99 88 1015.1
20260507034856 7 215 0.0 1.6 0.00 0.00 0.99 88 1015.1
20260507034350 7 0 0.0 0.0 0.00 0.00 0.99 87 1015.2
20260507033849 7 232 0.0 1.6 0.00 0.00 0.99 87 1015.3
20260507033351 7 0 0.0 0.0 0.00 0.00 0.99 86 1015.3
20260507032850 8 239 1.6 1.6 0.00 0.00 0.99 86 1015.4
20260507032349 8 244 1.6 1.6 0.00 0.00 0.99 86 1015.4
20260507031850 8 0 0.0 0.0 0.00 0.00 0.99 85 1015.3
20260507031351 8 0 0.0 0.0 0.00 0.00 0.99 85 1015.3
20260507030851 8 244 0.0 1.6 0.00 0.00 0.99 84 1015.3
20260507030352 8 0 0.0 0.0 0.00 0.00 0.99 83 1015.3
20260507025852 9 0 0.0 0.0 0.00 0.00 0.99 83 1015.3
20260507025351 9 0 0.0 0.0 0.00 0.00 0.99 82 1015.4
20260507024851 10 278 1.6 1.6 0.00 0.00 0.99 82 1015.5
20260507024350 10 278 1.6 1.6 0.00 0.00 0.99 81 1015.4
20260507023852 10 308 1.6 3.2 0.00 0.00 0.99 80 1015.3
20260507023351 10 265 1.6 1.6 0.00 0.00 0.99 78 1015.2
20260507022854 10 323 0.0 0.0 0.00 0.00 0.99 77 1015.1
20260507022351 11 0 0.0 0.0 0.00 0.00 0.99 76 1015.0
20260507021850 11 308 0.0 1.6 0.00 0.00 0.99 76 1015.0
20260507021351 11 315 0.0 3.2 0.00 0.00 0.99 74 1015.0
20260507020853 11 0 0.0 0.0 0.00 0.00 0.99 72 1015.0
20260507020351 11 0 0.0 0.0 0.00 0.00 0.99 71 1014.8
20260507015851 11 340 0.0 1.6 0.00 0.00 0.99 70 1014.8
20260507015351 11 342 0.0 3.2 0.00 0.00 0.99 70 1014.8
20260507014854 11 0 0.0 0.0 0.00 0.00 0.99 71 1014.8
20260507014354 11 314 0.0 1.6 0.00 0.00 0.99 70 1014.8
20260507013852 11 327 3.2 3.2 0.00 0.00 0.99 69 1014.7
20260507013353 11 356 0.0 1.6 0.00 0.00 0.99 69 1014.4
20260507012854 12 315 1.6 3.2 0.00 0.00 0.99 70 1014.5
20260507012352 12 0 0.0 0.0 0.00 0.00 0.99 68 1014.3
20260507011851 12 8 1.6 3.2 0.00 0.00 0.99 67 1014.0
20260507011351 12 351 1.6 3.2 0.00 0.00 0.99 67 1014.0
20260507010851 12 330 0.0 3.2 0.00 0.00 0.99 68 1014.2
20260507010352 12 350 0.0 4.8 0.00 0.00 0.99 67 1014.2
20260507005851 12 335 1.6 3.2 0.00 0.00 0.99 67 1014.0
20260507005351 12 328 0.0 3.2 0.00 0.00 0.99 67 1014.1
20260507004853 12 0 0.0 0.0 0.00 0.00 0.99 65 1013.9
20260507004351 12 23 0.0 1.6 0.00 0.00 0.99 65 1014.1
20260507003850 12 14 3.2 6.4 0.00 0.00 0.99 64 1013.8
20260507003351 12 2 4.8 6.4 0.00 0.00 0.99 64 1013.8
20260507002851 13 8 1.6 3.2 0.00 0.00 0.99 64 1013.8
20260507002350 13 5 1.6 3.2 0.00 0.00 0.99 64 1013.9
20260507001851 13 11 6.4 8.0 0.00 0.00 0.99 63 1013.8
20260507001352 13 8 4.8 6.4 0.00 0.00 0.99 64 1013.7
20260507000849 13 14 6.4 9.7 0.00 0.00 0.99 63 1013.6
20260507000357 13 21 6.4 9.7 0.00 0.00 0.99 62 1013.5
20260506235853 13 5 4.8 9.7 0.00 0.00 0.99 62 1013.4
20260506235350 13 16 4.8 6.4 0.00 0.00 0.99 63 1013.3
20260506234853 13 26 8.0 12.9 0.00 0.00 0.99 62 1013.1
20260506234352 13 18 3.2 6.4 0.00 0.00 0.99 62 1013.1
20260506233853 13 349 4.8 8.0 0.00 0.00 0.99 62 1012.9
20260506233350 13 10 4.8 6.4 0.00 0.00 0.99 62 1012.9
20260506232853 13 12 4.8 8.0 0.00 0.00 0.99 62 1012.9
20260506232352 13 15 3.2 6.4 0.00 0.00 0.99 63 1012.9
20260506231850 13 27 8.0 12.9 0.00 0.00 0.99 62 1012.6
20260506231351 13 14 6.4 12.9 0.00 0.00 0.99 62 1012.5
20260506230850 13 17 8.0 11.3 0.00 0.00 0.99 60 1012.5
20260506230354 13 10 6.4 9.7 0.00 0.00 0.99 61 1012.7
20260506225850 13 13 4.8 9.7 0.00 0.00 0.99 61 1012.9
20260506225353 13 41 6.4 11.3 0.00 0.00 0.99 61 1012.7
20260506224852 13 33 6.4 14.5 0.00 0.00 0.99 59 1012.7
20260506224351 13 16 4.8 8.0 0.00 0.00 0.99 60 1012.7
20260506223853 13 22 8.0 11.3 0.00 0.00 0.99 61 1012.9
20260506223353 13 18 8.0 11.3 0.00 0.00 0.99 60 1013.0
20260506222853 14 2 6.4 12.9 0.00 0.00 0.99 59 1013.0
20260506222351 14 16 4.8 6.4 0.00 0.00 0.99 60 1012.9
20260506221851 14 358 4.8 6.4 0.00 0.00 0.99 59 1012.9
20260506221350 14 12 6.4 11.3 0.00 0.00 0.99 62 1013.0
20260506220851 14 6 4.8 9.7 0.00 0.00 0.99 61 1013.0
20260506220351 14 6 4.8 8.0 0.00 0.00 0.99 61 1013.2
20260506215851 14 16 4.8 9.7 0.00 0.00 0.99 61 1013.3
20260506215349 14 2 4.8 6.4 0.00 0.00 0.99 62 1013.1
20260506214852 14 345 6.4 11.3 0.00 0.00 0.99 62 1013.0
20260506214351 14 30 6.4 9.7 0.00 0.00 0.99 62 1013.0
20260506213855 14 3 4.8 8.0 0.00 0.00 0.99 61 1013.0
20260506213352 14 348 3.2 6.4 0.00 0.00 0.99 62 1012.9
20260506212849 15 25 6.4 11.3 0.00 0.00 0.99 61 1012.7
20260506212352 15 345 4.8 6.4 0.00 0.00 0.99 61 1012.7
20260506211851 15 317 6.4 9.7 0.00 0.00 0.99 57 1012.3
20260506211350 15 325 4.8 8.0 0.00 0.00 0.99 57 1012.3
20260506210852 15 335 3.2 4.8 0.00 0.00 0.99 58 1012.4
20260506210352 15 338 3.2 6.4 0.00 0.00 0.99 57 1012.4
20260506205850 15 260 1.6 4.8 0.00 0.00 0.99 60 1012.4
20260506205351 15 330 4.8 6.4 0.00 0.00 0.99 58 1012.4
20260506204851 15 336 3.2 6.4 0.00 0.00 0.99 57 1012.4
20260506204352 15 320 3.2 6.4 0.00 0.00 0.99 58 1012.3
20260506203851 15 313 3.2 3.2 0.00 0.00 0.99 58 1012.4
20260506203353 15 49 3.2 4.8 0.00 0.00 0.99 58 1012.5
20260506202851 15 324 4.8 9.7 0.00 0.00 0.99 56 1012.3
20260506202351 15 314 4.8 6.4 0.00 0.00 0.99 57 1012.2
20260506201852 15 346 3.2 4.8 0.00 0.00 0.99 59 1012.3
20260506201352 15 28 6.4 9.7 0.00 0.00 0.99 58 1012.3
20260506200856 15 79 1.6 4.8 0.00 0.00 0.99 57 1012.4
20260506200351 15 35 4.8 6.4 0.00 0.00 0.99 56 1012.3
20260506195853 15 31 3.2 4.8 0.00 0.00 0.99 58 1012.5
20260506195353 16 22 3.2 6.4 0.00 0.00 0.99 56 1012.3
20260506194852 16 19 6.4 9.7 0.00 0.00 0.99 54 1012.6
20260506194352 16 226 1.6 3.2 0.00 0.00 0.99 53 1012.4
20260506193852 16 30 3.2 8.0 0.00 0.00 0.99 59 1012.2
20260506193351 15 16 4.8 9.7 0.00 0.00 0.99 55 1012.0
20260506192850 15 50 6.4 11.3 0.00 0.00 0.99 57 1012.0
20260506192351 15 355 6.4 14.5 0.00 0.00 0.99 55 1012.1
20260506191851 15 331 4.8 9.7 0.00 0.00 0.99 57 1012.0
20260506191351 15 65 4.8 6.4 0.00 0.00 0.99 60 1012.2
20260506190851 15 31 4.8 8.0 0.00 0.00 0.99 59 1012.3
20260506190356 15 27 6.4 11.3 0.00 0.00 0.99 57 1012.2
20260506185852 15 13 6.4 11.3 0.00 0.00 0.99 62 1012.2
20260506185353 15 9 4.8 8.0 0.00 0.00 0.99 59 1012.1
20260506184851 14 325 3.2 6.4 0.00 0.00 0.99 63 1012.0
20260506184353 14 29 8.0 9.7 0.00 0.00 0.99 64 1012.2
20260506183851 14 6 6.4 9.7 0.00 0.00 0.99 61 1012.2
20260506183353 14 35 3.2 6.4 0.00 0.00 0.99 65 1012.4
20260506182849 14 7 9.7 12.9 0.00 0.00 0.99 62 1012.2
20260506182351 14 86 3.2 6.4 0.00 0.00 0.99 63 1012.2
20260506181852 14 18 6.4 11.3 0.00 0.00 0.99 63 1012.3
20260506181354 14 5 6.4 8.0 0.00 0.00 0.99 61 1012.1
20260506180852 14 0 8.0 12.9 0.00 0.00 0.99 62 1012.4
20260506180354 14 34 6.4 9.7 0.00 0.00 0.99 64 1012.4
20260506175852 14 44 11.3 14.5 0.00 0.00 0.99 63 1012.4
20260506175351 13 300 3.2 6.4 0.00 0.00 0.99 64 1012.5
20260506174853 13 7 9.7 12.9 0.00 0.00 0.99 64 1012.6
20260506174354 13 339 8.0 12.9 0.00 0.00 0.99 63 1012.5
20260506173853 13 32 9.7 11.3 0.00 0.00 0.99 65 1012.8
20260506173353 13 13 8.0 12.9 0.00 0.00 0.99 65 1012.7
20260506172852 13 48 6.4 8.0 0.00 0.00 0.99 67 1012.9
20260506172354 13 12 3.2 6.4 0.00 0.00 0.99 67 1013.0
20260506171900 13 358 8.0 12.9 0.00 0.00 0.99 67 1012.9
20260506171352 13 7 6.4 9.7 0.00 0.00 0.99 67 1012.8
20260506170853 13 2 3.2 6.4 0.00 0.00 0.99 69 1012.9
20260506170354 12 352 6.4 9.7 0.00 0.00 0.99 66 1012.9
20260506165850 12 29 8.0 12.9 0.00 0.00 0.99 69 1013.1
20260506165353 12 9 6.4 9.7 0.00 0.00 0.99 72 1013.1
20260506164853 12 353 9.7 14.5 0.00 0.00 0.99 68 1013.0
20260506164351 12 352 6.4 14.5 0.00 0.00 0.99 70 1013.2
20260506163851 12 39 6.4 9.7 0.00 0.00 0.99 73 1013.2
20260506163352 12 48 11.3 14.5 0.00 0.00 0.99 72 1013.2
20260506162854 12 49 6.4 11.3 0.00 0.00 0.99 71 1012.9
20260506162352 12 16 8.0 14.5 0.00 0.00 0.99 74 1013.0
20260506161850 12 5 8.0 12.9 0.00 0.00 0.99 74 1012.9
20260506161352 12 30 9.7 14.5 0.00 0.00 0.99 73 1012.9
20260506160853 12 38 6.4 9.7 0.00 0.00 0.99 73 1012.9
20260506160354 12 5 8.0 12.9 0.00 0.00 0.99 73 1013.0
20260506155853 12 70 6.4 11.3 0.00 0.00 0.99 76 1013.2
20260506154907 11 31 8.0 11.3 0.00 0.00 0.99 76 1013.0
20260506154352 11 6 6.4 11.3 0.00 0.00 0.99 73 1012.9
20260506153851 11 20 9.7 16.1 0.00 0.00 0.99 76 1013.0
20260506153353 11 34 6.4 9.7 0.00 0.00 0.99 77 1012.9
20260506152852 11 46 8.0 9.7 0.00 0.00 0.99 76 1012.6
20260506152354 11 353 9.7 14.5 0.00 0.00 0.99 75 1012.6
20260506151852 11 43 8.0 12.9 0.00 0.00 0.99 79 1012.7
20260506151353 11 8 4.8 8.0 0.00 0.00 0.99 80 1012.9
20260506150852 11 347 6.4 12.9 0.00 0.00 0.99 79 1012.5
20260506150350 11 35 4.8 9.7 0.00 0.00 0.99 80 1012.5
20260506145852 11 12 6.4 9.7 0.00 0.00 0.99 82 1012.5
20260506145354 10 23 3.2 6.4 0.00 0.00 0.99 83 1012.6
20260506144849 10 63 6.4 14.5 0.00 0.00 0.99 80 1012.4
20260506144352 10 13 4.8 6.4 0.00 0.00 0.99 81 1012.4
20260506143854 10 12 6.4 11.3 0.00 0.00 0.99 85 1012.3
20260506143352 10 1 9.7 14.5 0.00 0.00 0.99 83 1012.2
20260506142854 10 345 6.4 9.7 0.00 0.00 0.99 84 1012.2
20260506142352 10 39 3.2 6.4 0.00 0.00 0.99 84 1012.2
20260506141853 10 11 3.2 6.4 0.00 0.00 0.99 86 1012.2
20260506141349 10 10 6.4 12.9 0.00 0.00 0.99 86 1012.0
20260506140852 10 26 6.4 11.3 0.00 0.00 0.99 88 1012.0
20260506140352 10 23 6.4 11.3 0.00 0.00 0.99 87 1011.9
20260506135855 10 30 8.0 11.3 0.00 0.00 0.99 88 1011.9
20260506135351 9 31 4.8 8.0 0.00 0.00 0.99 88 1012.2
20260506134853 9 358 6.4 8.0 0.00 0.00 0.99 88 1012.2
20260506134351 9 21 4.8 8.0 0.00 0.00 0.99 89 1012.2
20260506133852 9 349 4.8 9.7 0.00 0.00 0.99 88 1012.2
20260506133351 9 7 6.4 8.0 0.00 0.00 0.99 88 1012.1
20260506132853 9 344 6.4 6.4 0.00 0.00 0.99 89 1011.8
20260506132354 9 7 6.4 9.7 0.00 0.00 0.99 90 1011.9
20260506131851 8 27 4.8 8.0 0.00 0.00 0.99 92 1011.8
20260506131351 8 335 4.8 9.7 0.00 0.00 0.99 91 1011.8
20260506130851 8 9 6.4 8.0 0.00 0.00 0.99 92 1011.7
20260506130351 8 4 6.4 8.0 0.00 0.00 0.99 92 1011.7
20260506125851 8 340 4.8 6.4 0.00 0.00 0.99 93 1011.6
20260506125351 8 29 4.8 6.4 0.00 0.00 0.99 92 1011.5
20260506124853 8 3 4.8 6.4 0.00 0.00 0.99 93 1011.5
20260506123952 8 22 4.8 8.0 0.00 0.00 0.99 93 1011.5
20260506123351 8 0 3.2 6.4 0.00 0.00 0.99 94 1011.6
20260506122851 8 356 4.8 6.4 0.00 0.00 0.99 94 1011.5
20260506122352 8 334 3.2 4.8 0.00 0.00 0.99 94 1011.3
20260506121852 8 343 3.2 6.4 0.00 0.00 0.99 94 1011.3
20260506121354 8 358 4.8 4.8 0.00 0.00 0.99 95 1011.1
20260506120851 8 17 6.4 8.0 0.00 0.00 0.99 94 1010.9
20260506120351 8 349 4.8 8.0 0.00 0.00 0.99 95 1011.1
20260506115852 7 9 8.0 9.7 0.00 0.00 0.99 94 1010.8
20260506115351 7 11 6.4 9.7 0.00 0.00 0.99 94 1010.5
20260506114851 8 18 6.4 8.0 0.00 0.00 0.99 94 1010.6
20260506114354 8 338 4.8 6.4 0.00 0.00 0.99 95 1010.5
20260506113851 8 349 6.4 9.7 0.00 0.00 0.99 95 1010.3
20260506113352 8 1 6.4 9.7 0.00 0.00 0.99 95 1010.1
20260506112851 8 17 4.8 6.4 0.00 0.00 0.99 95 1009.9
20260506112351 8 359 8.0 11.3 0.00 0.00 0.99 95 1009.9
20260506111853 8 2 3.2 4.8 0.00 0.00 0.99 95 1010.1
20260506111352 8 4 3.2 3.2 0.00 0.00 0.99 95 1010.0
20260506110851 8 13 6.4 8.0 0.00 0.00 0.99 95 1009.8
20260506110355 8 14 8.0 11.3 0.00 0.00 0.99 95 1009.4
20260506105853 8 1 4.8 8.0 0.00 0.00 0.99 95 1009.3
20260506105353 8 21 6.4 8.0 0.00 0.00 0.99 95 1009.4
20260506104851 8 348 6.4 8.0 0.00 0.00 0.99 95 1009.3
20260506104353 7 15 4.8 6.4 0.00 0.00 0.99 95 1009.2
20260506103851 7 12 3.2 6.4 0.00 0.00 0.99 95 1009.2
20260506103352 7 32 6.4 8.0 0.00 0.00 0.99 96 1009.0
20260506102854 7 10 4.8 6.4 0.00 0.00 0.99 96 1008.8
20260506102351 7 50 4.8 6.4 0.00 0.00 0.99 95 1008.7
20260506101851 7 36 6.4 9.7 0.00 0.00 0.99 95 1008.5
20260506101353 7 17 3.2 4.8 0.00 0.00 0.99 96 1008.7
20260506100851 7 11 4.8 6.4 0.00 0.00 0.99 96 1008.9
20260506100352 7 21 6.4 8.0 0.00 0.00 0.99 96 1008.8
20260506095852 7 4 6.4 11.3 0.00 0.00 0.99 95 1008.8
20260506095353 7 358 8.0 11.3 0.00 0.00 0.99 95 1008.9
20260506094850 7 8 6.4 8.0 0.00 0.00 0.99 95 1009.0
20260506094352 7 9 9.7 14.5 0.00 0.00 0.99 95 1008.9
20260506093855 7 5 8.0 12.9 0.00 0.00 0.99 95 1008.7
20260506093351 8 9 8.0 9.7 0.00 0.00 0.99 95 1008.6
20260506092852 8 356 9.7 12.9 0.00 0.00 0.99 95 1008.7